Regional Weather Roundup
Issued by NWS Upton, NY

Current Version | Previous Version | Graphics & Text | Print | Product List | Glossary Off
Versions: 1 2 3 4 5 6 7 8 9 10 11 12 13 14 15 16 17 18 19 20 21 22 23 24 25 26 27 28 29 30 31 32 33 34 35 36 37 38 39 40 41 42 43 44 45 46 47 48 49 50

000
ASUS41 KOKX 022304
RWROKX

REGIONAL WEATHER ROUNDUP
NATIONAL WEATHER SERVICE NEW YORK NY
700 PM EDT WED SEP 02 2015

NOTE: "FAIR" INDICATES FEW OR NO CLOUDS BELOW 12,000 FEET WITH NO
SIGNIFICANT WEATHER AND/OR OBSTRUCTIONS TO VISIBILITY.

NYZ071-072-176-178-NJZ106-104-030000-
NEW YORK CITY METRO AREA


CITY           SKY/WX    TMP DP  RH WIND       PRES   REMARKS
CENTRAL PARK   CLEAR     83  64  52 CALM      29.93S
LAGUARDIA APRT MOCLDY    82  63  52 S9        29.90S
KENNEDY INTL   PTCLDY    80  65  59 S15       29.91F
NEWARK/LIBERTY PTCLDY    85  69  58 S6        29.89S
BRNX BOT. GARD   N/A     79  63  57 SE6       29.91S
TETERBORO      CLEAR     84  65  52 S6        29.88S
$$

NYZ177-179-078>081-030000-
LONG ISLAND NEW YORK

CITY           SKY/WX    TMP DP  RH WIND       PRES   REMARKS
FARMINGDALE    CLEAR     79  64  60 SW10      29.92S
ISLIP          PTCLDY    78  65  63 SW10      29.90S
SHIRLEY        CLEAR     77  68  73 SW8       29.92S
WESTHAMPTON    CLEAR     76  69  79 SW7       29.93S
MONTAUK POINT    N/A     76  68  76 VRB6      29.92S
$$

NYZ052-065-067-030000-
HUDSON VALLEY

CITY           SKY/WX    TMP DP  RH WIND       PRES   REMARKS
WHITE PLAINS   CLEAR     80  62  54 S7        29.91S
NEWBURGH       PTCLDY    86  66  51 SW7       29.91S
MONTGOMERY     PTCLDY    84  65  52 W6        29.89F
POUGHKEEPSIE   PTCLDY    85  66  53 CALM      29.87F
ALBANY         PTCLDY    82  65  56 W7        29.89R
$$

NJZ001-105-106-008-010-013-015-019>022-104-030000-
NEW JERSEY

CITY           SKY/WX    TMP DP  RH WIND       PRES   REMARKS
NEWARK/LIBERTY PTCLDY    85  69  58 S6        29.89S
TETERBORO      CLEAR     84  65  52 S6        29.88S
CALDWELL       CLEAR     87  62  43 NW5       29.89S
MORRISTOWN     PTCLDY    86  64  48 N3        29.90S
SOMERVILLE     CLEAR     83  65  54 CALM      29.88S
SUSSEX         PTCLDY    83  68  60 CALM      29.92F
ANDOVER          N/A     78  71  79 CALM      29.93S
TRENTON        CLEAR     88  63  43 W5        29.89F
MILLVILLE      PTCLDY    81  72  74 CALM      29.91F
ATLANTIC CITY  PTCLDY    80  71  74 S6        29.92F
WRIGHTSTOWN    PTCLDY    82  73  74 S8        29.88S
TOMS RIVER     CLEAR     81  72  74 S7        29.92F
BELMAR         CLEAR     81  66  61 S6        29.91F
$$

PAZ047>061-062-071-030000-
EASTERN PENNSYLVANIA

CITY           SKY/WX    TMP DP  RH WIND       PRES   REMARKS
PHILADELPHIA   PTCLDY    90  61  37 SW12      29.90F HX  90
ALLENTOWN      CLEAR     84  66  54 N3        29.92S
SCRANTON       CLEAR     84  64  50 NW3       29.95S
$$

CTZ002-004>006-009-010-012-RIZ004-006-007-MAZ004-011-015-030000-
SOUTHERN NEW ENGLAND
 IN CT

CITY           SKY/WX    TMP DP  RH WIND       PRES   REMARKS
BRADLEY INTL   PTCLDY    83  66  56 NW6       29.87F
HARTFORD       CLEAR     87  60  40 VRB7      29.87S
DANBURY        CLEAR     82  66  58 SW6       29.92R
WTRBRY/OXFORD  CLEAR     82  64  54 VRB5      29.95R
BRIDGEPORT     CLEAR     82  68  62 SW12      29.90R
MERIDEN        CLEAR     84  65  52 S7        29.89R
NEW HAVEN      CLEAR     79  68  69 S7        29.90S
CHESTER        NOT AVBL
GROTON         CLEAR     75  67  76 SW7       29.90R
WILLIMANTIC    CLEAR     83  65  54 SW7       29.89S

 IN RI

CITY           SKY/WX    TMP DP  RH WIND       PRES   REMARKS
PROVIDENCE     PTCLDY    80  66  62 SW9       29.88F
BLOCK ISLAND   CLEAR     73  68  83 SW13      29.91F
WESTERLY       CLEAR     77  65  66 SW9       29.91S

 IN MA

CITY           SKY/WX    TMP DP  RH WIND       PRES   REMARKS
BOSTON         CLEAR     87  59  38 W8        29.85F
WORCESTER      CLEAR     79  63  57 W5        29.92F
WESTFIELD      CLEAR     84  64  50 W3        29.88F
PROVINCETOWN     N/A     73  61  64 SW13      29.88S
NANTUCKET        N/A    N/A N/A N/A MISG      29.91F
$$

ANZ330-335-338-340-345-350-353-355-030000-
COASTAL MARINE OBSERVATIONS


STATION/POSITION TIME  SKY/WX   TEMP    WIND        PRES    VSBY  WAVE
                                AIR SEA DIR/SP/G                  HT/PER
                 (UTC)          (F)     (DEG/KT/KT) (MB)    (MI)  (FT/S)
NY HARB ENTRANCE 2150            78 77  190/ 14/ 16 1012.6          2/ 3
4S FIRE IS       NOT AVBL
20S FIRE ISLAND  2150            76 75  190/ 10/ 12 1013.0          2/ 8
GREAT SOUTH BAY  2200            77 80  230/ 12/ 14   N/A
23SW MTP         2250            75 73  220/ 10/ 12 1012.6          2/ 7
HUDSON CANYON    NOT AVBL
KINGS POINT      2200            80 76  190/ 12/ 14 1012.1
EXECUTION ROCKS  2200            81     180/ 10/ 12   N/A
CENTRAL LI SOUND NOT AVBL
EASTERN LI SOUND 2200            75 70  220/  8/ 10   N/A
ROBBINS REEF     2200            78     160/ 15/ 16 1011.1
$$


>>>>>>>>>>>>>>>>>>>>>>>>>>>> KEY <<<<<<<<<<<<<<<<<<<<<<<<<<<
>                                                          <
>     SKY/WX - SKY CONDITION/PRESENT WEATHER               <
>     TMP    - TEMPERATURE IN FAHRENHEIT                   <
>     DP     - DEWPOINT IN FAHRENHEIT                      <
>     RH     - RELATIVE HUMIDITY IN PERCENT                <
>     WIND   - DIRECTION AND SPEED IN MPH                  <
>     PRES   - MEAN SEA LEVEL PRESSURE IN INCHES OF HG     <
>     WCI    - WIND CHILL INDEX                            <
>     VSB    - VISIBILITY IN MILES                         <
>     HX     - HEAT INDEX                                  <
>     TC     - TEMPERATURE IN CELSIUS                      <
>     VRB    - VARIABLE WIND DIRECTION                     <
>                                                          <
>>>>>>>>>>>>>>>>>>>>>>>>>>>> KEY <<<<<<<<<<<<<<<<<<<<<<<<<<<




USA.gov is the U.S. government's official web portal to all federal, state and local government web resources and services.